Theta_e
307 306 306 306 305 305 305 305 305 305 304 304 304 304 304 304 304 304 306 306 306 306 306 305 306 306 306 306 305 305 305 305 304 303 303 305 303 304 304 304 304 304 305 304 305 305 307 309 308 307 308 308 309 311 313 313 312 312 314 314 312 311 310 309 311 310 309 312 311 311 310 311 312 313 334 347 345 346 348 349 348 347 346 346 348 347 347 346
307 307 306 306 306 305 305 305 305 305 305 305 304 304 304 304 304 304 305 306 305 305 306 305 305 306 306 305 305 305 305 303 303 303 305 306 306 307 306 305 304 304 304 304 305 305 307 309 308 307 307 308 308 310 312 313 313 314 315 313 313 313 310 309 311 309 309 311 311 313 311 310 313 310 321 346 350 348 350 350 349 348 347 346 347 347 346 345
307 307 306 306 306 306 306 305 305 305 305 305 304 304 304 304 304 304 304 305 305 305 306 305 305 306 306 306 305 305 304 302 304 305 307 307 307 309 309 308 306 306 305 304 306 306 307 309 309 307 307 308 309 310 311 312 314 314 313 313 314 312 310 309 308 309 309 310 312 313 311 310 312 309 318 343 351 349 349 349 349 349 348 346 345 346 346 345
308 307 307 306 306 306 306 305 305 305 305 305 304 304 304 304 304 304 304 304 305 305 305 305 305 305 306 306 305 304 302 303 305 306 308 306 305 308 310 309 308 309 307 304 308 309 308 309 308 308 308 308 309 310 311 312 314 313 313 314 313 311 312 312 310 311 310 309 312 311 311 312 311 316 327 343 350 350 349 349 349 349 348 346 344 345 346 345
307 307 308 307 307 306 306 306 305 305 305 305 305 304 304 304 304 304 304 304 304 305 305 304 304 305 306 305 305 303 302 303 305 307 306 304 304 307 309 310 309 310 308 305 307 309 308 307 307 308 308 308 310 311 311 313 313 314 314 315 313 311 313 314 313 312 311 310 310 312 313 312 312 319 333 341 343 348 348 347 348 347 346 345 345 344 345 345
306 306 307 308 308 307 307 306 306 306 306 305 305 305 304 304 304 304 303 303 303 304 305 304 304 304 306 305 304 303 303 303 305 306 304 303 303 305 309 311 310 311 308 306 307 307 307 307 307 308 308 308 311 311 311 312 312 313 314 314 313 313 314 315 314 313 312 311 311 313 311 312 312 313 331 342 341 344 345 346 347 346 345 346 346 344 344 343
306 306 306 307 307 308 307 307 307 306 306 305 305 305 305 304 304 304 303 303 303 303 304 304 304 304 306 304 303 303 303 304 304 304 304 303 303 304 310 315 315 314 308 306 307 306 307 307 306 308 308 308 310 311 311 312 311 313 313 313 314 313 315 314 315 313 311 311 312 312 310 313 312 312 336 348 345 346 346 346 346 346 346 346 345 344 344 343
305 305 305 305 306 307 307 307 307 307 306 306 305 304 304 304 304 304 303 303 303 303 303 304 304 305 305 304 303 302 302 303 303 303 303 303 303 303 310 317 318 313 308 307 306 306 306 306 307 306 308 307 309 311 311 312 312 312 313 313 313 312 313 313 313 312 311 311 310 310 311 313 311 318 342 349 346 349 347 347 346 345 345 344 344 344 344 344
304 304 305 305 305 305 306 307 307 307 307 306 306 305 304 304 304 304 303 303 303 303 304 304 304 305 305 304 303 302 302 302 302 303 303 303 303 302 306 313 315 310 307 306 305 306 305 306 308 307 308 307 308 311 310 312 313 312 313 312 313 313 313 312 312 312 311 310 310 311 310 316 322 329 344 348 349 351 347 348 347 344 345 344 345 344 344 344
303 303 304 304 304 304 305 306 306 307 307 306 306 305 305 304 304 304 303 303 303 303 303 304 305 304 304 304 303 303 303 301 303 303 303 303 303 302 302 306 310 310 307 306 305 306 305 306 307 307 308 308 309 310 310 312 312 312 313 312 313 314 313 312 312 312 310 310 310 312 311 325 335 331 337 349 350 351 348 349 346 345 346 345 345 344 344 344
302 302 303 303 303 304 304 305 305 306 306 306 306 306 305 304 304 303 303 303 303 302 303 303 304 304 304 303 302 304 302 300 303 304 303 302 301 302 302 301 305 308 307 306 305 306 306 305 306 307 308 309 309 309 310 311 310 311 311 311 311 311 311 310 311 311 309 311 310 312 311 325 336 328 332 349 351 350 350 348 347 346 346 345 345 344 344 344
301 302 302 303 303 303 303 304 304 305 306 306 306 306 305 305 304 303 303 303 303 302 302 302 303 304 304 304 303 303 301 301 302 302 301 301 301 301 301 301 302 304 306 306 305 305 305 305 306 308 308 308 309 308 310 309 307 309 309 310 310 308 310 310 310 310 310 312 310 312 310 317 329 327 334 348 350 351 350 348 348 346 346 346 344 344 344 344
301 301 301 301 302 302 302 303 304 304 305 305 306 306 305 305 304 303 303 303 303 303 302 301 303 304 303 304 304 303 302 302 302 301 301 301 301 301 301 301 301 303 305 306 306 305 304 305 306 307 306 307 308 307 307 307 306 308 308 309 310 309 311 310 309 309 310 312 310 312 311 313 319 322 336 348 349 351 350 349 348 346 347 346 345 345 344 342
300 301 301 300 301 301 302 302 303 304 304 305 305 306 305 305 304 304 303 303 303 303 302 301 302 303 303 303 303 303 302 302 302 302 301 301 301 301 301 301 301 303 304 306 307 305 305 305 306 307 306 306 307 306 306 306 307 308 308 309 309 310 312 310 309 309 311 312 311 312 311 312 316 324 340 349 348 351 351 349 348 347 348 347 346 345 343 342
300 300 301 300 300 300 301 301 302 303 303 304 305 305 305 304 304 304 303 303 303 302 302 302 302 303 302 302 303 302 301 301 302 302 301 301 301 302 301 301 301 302 303 305 306 307 307 306 307 307 306 306 306 306 307 307 307 308 310 310 309 310 311 311 309 310 313 311 309 311 311 313 323 334 346 348 348 351 350 350 349 348 348 348 347 346 344 341
300 300 300 300 300 300 300 300 301 302 302 303 304 305 304 304 304 303 303 302 302 302 302 301 302 302 302 303 301 300 301 302 302 302 302 302 302 302 301 302 301 301 302 303 305 306 306 307 307 307 306 305 306 308 308 309 308 307 309 311 309 309 311 311 310 309 310 310 310 311 313 318 328 340 348 348 350 351 350 351 349 348 348 347 347 346 345 341
299 300 300 300 300 299 299 300 300 301 302 302 304 304 304 303 303 302 301 301 301 302 301 301 302 302 303 302 301 301 302 302 302 302 303 303 303 302 301 302 302 302 303 303 304 305 305 306 306 306 305 305 306 308 310 311 311 308 309 310 309 309 310 310 310 308 307 310 311 310 315 321 330 343 349 347 348 350 350 351 350 348 347 347 346 346 345 342
299 299 299 299 299 299 299 299 299 300 301 302 303 304 304 303 302 301 300 301 301 301 301 301 302 302 303 302 302 303 302 301 301 302 303 303 303 303 301 301 302 303 305 304 305 304 304 305 305 306 305 305 306 308 311 312 311 310 310 310 309 308 309 310 310 308 308 311 311 311 314 317 329 346 348 345 345 348 350 350 350 349 347 347 346 346 346 344
299 299 299 299 299 298 298 299 300 300 300 301 302 303 303 302 301 300 300 301 301 300 300 301 301 301 301 300 300 301 301 301 301 302 303 303 304 303 301 302 302 304 306 306 306 305 304 305 304 305 306 305 306 308 310 310 309 309 309 310 310 309 309 310 310 308 308 311 311 312 312 314 332 348 349 344 342 347 350 350 351 349 348 348 346 347 347 343
299 299 299 299 299 299 298 298 299 300 300 301 302 302 302 300 300 301 301 300 300 301 300 301 301 301 300 299 299 300 300 301 302 302 303 304 304 303 302 302 302 304 306 307 307 306 305 306 305 305 306 305 305 308 309 307 308 309 308 310 309 309 309 309 310 308 307 310 312 312 313 320 337 347 347 344 342 345 350 350 351 350 348 348 347 347 344 338
298 298 298 299 298 298 298 297 298 299 300 301 302 302 301 300 300 301 301 300 300 301 301 300 301 301 301 301 300 301 300 301 302 302 303 304 304 303 302 302 302 304 306 307 308 307 306 308 307 305 305 304 305 309 310 307 307 308 309 309 308 309 309 309 310 308 307 310 311 310 312 324 341 347 345 345 344 346 349 349 350 349 347 347 346 346 340 335
299 298 298 298 298 298 298 297 297 299 300 301 302 302 301 301 300 301 301 301 301 301 301 300 301 301 301 302 301 301 300 300 301 301 302 303 303 302 302 303 303 304 306 307 309 308 308 309 308 306 305 304 305 308 309 308 308 308 308 309 309 308 308 309 309 308 308 309 311 310 310 320 335 342 344 345 345 346 346 347 349 348 347 347 345 344 339 336
299 298 298 298 298 298 298 297 297 298 300 301 301 301 301 301 300 300 301 302 302 301 301 301 301 300 301 301 301 300 300 300 301 301 302 303 303 302 302 303 303 304 306 308 310 310 310 310 308 306 304 304 305 307 308 308 308 309 308 309 309 308 308 309 309 309 309 309 311 311 311 314 319 327 336 342 344 347 345 344 345 345 346 347 343 342 340 337
298 298 298 298 297 298 298 297 297 298 299 301 301 301 301 300 300 300 301 302 302 302 301 301 301 301 301 301 301 300 300 301 301 302 303 304 303 302 302 303 304 305 306 308 310 310 310 309 307 305 305 305 305 306 307 308 309 309 308 308 308 307 308 308 309 310 310 310 311 311 310 311 312 318 331 338 341 345 342 338 340 341 343 343 340 339 337 335
298 298 298 298 298 298 297 297 297 298 299 300 300 300 300 300 300 300 301 302 303 302 301 302 302 301 302 301 301 301 301 301 302 302 304 304 303 302 303 303 304 305 306 307 309 310 309 308 306 305 306 306 305 305 306 307 308 308 307 308 308 308 308 308 308 310 310 310 310 310 309 311 312 314 323 334 341 344 337 335 339 341 340 340 338 337 334 333
298 298 298 298 298 298 297 297 298 298 299 300 299 299 299 299 299 300 301 303 304 303 301 301 302 302 302 302 301 302 302 302 303 303 304 304 304 303 303 303 305 305 305 306 308 309 308 307 307 307 307 306 306 306 306 307 308 308 308 307 307 308 308 308 309 309 309 310 310 310 309 311 313 311 313 324 340 345 337 335 339 340 341 340 339 336 334 333
299 298 298 298 298 297 297 298 298 298 298 298 298 299 299 299 298 300 302 303 304 303 301 301 301 302 302 302 302 301 301 302 303 303 303 304 304 304 304 304 305 304 304 306 309 309 308 307 307 309 308 307 307 306 306 306 308 308 307 307 307 308 308 309 309 309 310 311 310 310 309 310 310 313 317 319 332 345 340 338 340 340 341 341 339 337 335 335
299 298 297 298 298 297 297 297 298 298 298 298 298 298 299 298 299 301 302 302 302 302 302 301 301 302 302 302 302 301 301 301 303 303 303 304 305 304 304 304 305 305 304 307 310 308 308 308 307 309 309 308 308 307 306 306 308 307 306 306 307 308 308 309 308 309 310 310 310 310 310 311 308 315 325 320 323 341 344 341 339 338 340 340 338 337 336 336
298 298 298 298 297 297 297 297 298 299 299 298 298 298 299 298 300 302 302 302 303 303 303 302 301 302 302 302 302 302 302 302 302 303 303 304 304 303 304 304 304 305 304 307 309 306 307 308 308 309 310 309 308 307 305 307 308 306 305 307 307 308 309 310 309 309 311 311 311 311 311 311 309 316 329 327 323 334 344 342 339 338 339 339 338 337 336 336
298 298 298 297 297 297 297 297 297 298 299 298 298 299 299 299 302 303 303 304 306 305 302 300 301 303 303 303 304 302 302 303 303 303 303 303 303 303 303 303 304 305 304 305 308 305 305 307 308 309 309 309 308 306 305 308 307 305 306 307 307 308 309 311 311 309 311 311 311 311 311 311 309 316 329 331 327 330 340 343 341 338 338 338 338 337 337 336
297 298 297 297 297 297 297 298 298 298 298 298 298 299 299 300 303 303 303 304 306 308 305 302 302 304 304 304 304 303 303 303 303 303 303 303 303 303 303 303 304 305 304 306 307 305 305 308 308 308 309 308 307 306 306 306 306 306 307 308 308 310 309 310 311 310 311 312 311 309 310 310 310 316 327 331 330 331 336 342 342 340 338 338 338 337 336 336
297 297 297 297 297 297 297 297 297 297 297 297 298 300 300 302 303 303 303 302 307 310 309 306 305 304 305 305 304 304 303 303 303 304 303 303 304 304 304 304 305 306 306 306 307 305 306 307 306 307 309 308 307 307 306 305 306 307 308 309 309 310 310 310 311 310 311 312 311 309 310 311 310 315 324 329 333 335 336 340 341 339 338 338 338 338 337 337
296 296 296 297 297 297 297 297 297 297 297 297 298 300 300 302 304 304 303 304 308 308 308 307 306 305 305 305 305 304 303 303 303 303 303 303 304 304 304 304 305 307 307 307 307 306 306 305 304 307 309 308 309 309 307 306 307 308 309 309 309 310 311 311 311 311 311 311 311 310 310 313 314 319 327 330 333 333 336 340 340 339 338 338 339 338 337 338
297 296 296 296 296 296 296 296 297 297 297 298 299 300 300 302 304 304 304 306 307 306 306 306 305 306 306 305 305 304 303 303 303 303 303 304 305 305 304 303 303 305 306 306 307 307 307 306 306 308 309 308 309 309 308 308 307 308 309 308 310 310 311 311 310 310 312 312 312 311 311 315 319 326 330 331 332 333 336 340 341 339 338 338 338 338 339 339
297 296 296 296 296 296 296 297 297 297 297 299 300 299 300 302 303 304 305 306 306 305 306 305 305 308 308 306 305 303 303 303 303 303 303 304 305 306 305 304 303 304 306 307 307 307 307 306 305 306 307 308 309 308 307 308 308 308 308 308 310 311 312 312 311 312 313 312 312 313 315 321 326 329 330 332 333 333 335 339 339 338 337 337 338 339 339 340
297 297 296 296 297 297 297 297 297 297 297 299 300 299 300 302 303 304 305 305 305 305 305 306 308 309 309 308 306 304 304 303 303 303 303 304 305 305 305 304 302 304 306 308 307 307 307 307 305 305 306 307 308 307 307 309 310 308 307 309 309 309 313 314 311 312 313 311 314 318 321 324 325 329 331 332 334 334 334 337 339 337 336 337 338 338 336 335
297 297 297 297 298 298 297 297 297 297 299 299 299 299 301 302 302 303 304 304 304 304 305 308 311 310 310 309 306 304 305 303 302 304 303 304 305 304 304 303 302 303 306 307 307 306 308 307 306 305 305 306 307 308 307 308 309 309 308 309 309 308 311 314 313 312 311 310 315 321 326 325 321 326 333 334 335 336 334 335 337 336 336 336 335 333 330 330
297 297 298 298 298 298 298 297 298 298 299 300 299 300 302 302 302 302 303 304 304 304 306 309 311 311 310 310 307 305 305 303 303 303 303 305 304 304 304 302 302 303 305 306 307 307 307 307 306 306 306 306 306 308 309 308 306 308 309 309 310 310 310 312 313 314 313 311 315 322 328 327 320 327 336 334 335 337 334 333 335 335 334 333 332 331 329 329
297 298 298 298 298 298 298 297 298 299 299 299 299 300 302 302 301 302 303 304 304 305 306 309 310 309 310 310 309 307 304 302 303 303 304 305 304 304 305 303 302 303 304 307 307 307 308 308 307 306 306 306 307 308 310 308 306 307 309 308 309 311 311 312 313 313 314 314 315 321 327 327 323 328 335 334 334 336 335 334 335 334 332 331 330 330 329 328
298 298 298 298 298 298 298 298 299 299 299 299 299 300 301 301 301 302 303 303 304 305 307 308 308 308 309 310 309 309 306 303 303 303 304 304 303 303 304 304 302 302 304 306 307 307 308 309 308 306 306 306 308 309 310 310 308 308 309 309 310 310 310 311 312 311 313 316 317 317 320 324 325 326 331 334 334 334 335 334 333 332 330 329 329 330 327 325
298 299 299 299 299 298 298 298 298 299 299 299 300 300 301 301 301 302 302 302 303 304 306 307 307 308 309 309 310 310 309 305 303 303 304 303 304 304 304 304 303 301 303 305 306 307 309 309 309 309 306 307 308 308 308 309 309 309 310 310 310 311 310 310 312 311 313 318 321 319 316 320 325 324 328 332 333 332 333 333 331 330 330 330 329 327 324 323
298 299 299 299 298 299 299 298 298 299 299 300 301 300 301 301 301 301 302 303 304 305 306 306 307 308 309 309 309 310 310 308 304 304 305 304 304 305 303 304 304 302 304 305 305 309 313 311 310 309 308 308 308 307 308 309 309 309 310 309 309 312 311 309 311 313 314 318 321 320 316 320 327 327 327 330 331 331 331 330 330 330 330 329 326 324 323 323
298 298 299 299 298 299 299 298 298 299 299 299 300 300 300 301 301 301 302 303 305 306 306 307 307 308 309 309 309 310 311 310 307 305 307 306 305 305 304 303 303 303 305 305 304 310 315 311 308 309 308 308 308 307 306 307 308 308 310 309 309 311 311 311 313 314 314 316 319 318 314 320 328 328 328 330 330 329 330 329 328 328 327 325 323 323 323 323
297 297 298 299 299 299 300 299 299 299 299 300 300 300 300 301 300 301 301 303 305 305 306 306 306 307 308 308 307 309 311 311 309 308 308 307 306 305 304 302 303 304 305 306 307 309 310 309 308 310 309 309 309 308 307 307 307 309 311 309 308 310 311 313 315 313 313 315 317 315 314 323 331 329 329 330 329 329 328 327 326 326 325 324 323 323 322 322
297 298 299 299 299 299 300 300 301 300 300 300 300 300 301 302 302 302 303 303 304 305 305 306 305 306 306 306 306 309 310 310 312 311 310 310 309 307 303 302 304 304 305 309 310 308 309 311 310 309 310 310 310 311 310 308 308 309 310 309 308 310 312 313 314 312 311 317 318 312 316 328 332 331 330 330 329 330 328 325 325 325 324 324 323 322 321 321
298 300 301 300 300 299 299 300 301 301 302 301 302 302 302 304 305 304 305 305 305 305 305 306 305 306 306 306 308 311 310 310 311 312 312 313 314 311 306 304 304 304 309 314 312 310 313 314 310 310 313 311 310 312 312 309 309 309 309 309 308 309 312 314 314 312 312 317 319 317 324 333 335 333 333 332 330 331 328 325 325 325 323 323 322 321 321 320
298 300 300 300 300 300 300 300 300 301 302 302 303 304 304 305 305 305 305 305 305 305 306 306 306 306 306 306 309 311 310 309 310 312 314 314 315 315 311 307 304 306 314 315 311 312 314 310 310 313 312 310 310 312 312 310 310 309 309 310 309 309 314 315 314 316 317 316 316 322 329 337 337 333 334 333 330 330 328 326 325 324 323 322 321 320 320 320
299 299 299 300 302 302 301 301 300 300 301 302 303 305 305 305 305 306 306 305 305 305 307 308 307 307 307 306 307 310 312 312 312 314 315 315 316 316 313 310 308 312 316 312 310 316 313 308 312 312 310 313 315 314 315 315 312 310 310 311 310 310 314 316 315 319 320 314 314 325 332 335 334 331 332 332 329 327 326 324 324 322 321 321 320 320 320 320
299 299 299 299 301 302 302 301 302 302 302 303 304 304 305 305 305 305 305 305 306 306 307 309 309 309 309 307 308 311 313 313 314 315 315 315 316 317 316 314 313 314 316 311 311 316 312 310 317 314 312 320 319 316 318 318 313 312 314 313 312 312 314 315 318 322 324 322 323 329 333 332 330 330 330 328 326 324 324 323 322 321 321 320 320 319 320 320
298 298 298 299 299 300 301 302 302 303 303 304 305 305 305 305 305 306 306 306 308 308 308 309 310 310 310 309 310 312 312 312 314 314 314 315 316 316 317 317 314 314 314 310 311 314 310 312 318 314 312 320 319 315 317 317 314 316 319 316 314 314 313 315 319 321 325 331 329 327 331 331 329 329 328 326 324 323 323 323 323 321 320 319 319 319 319 319
298 297 297 297 299 301 303 303 303 303 303 303 304 304 305 305 306 307 307 307 308 309 308 309 310 310 310 310 311 312 312 312 313 313 313 314 315 316 316 316 315 316 314 311 313 314 310 312 316 313 310 317 319 316 316 316 315 318 321 318 315 314 315 318 320 320 323 332 330 326 329 332 330 329 326 325 324 323 323 323 323 321 319 319 319 319 319 318
299 299 298 298 300 303 304 305 305 305 305 304 304 304 305 306 306 307 307 306 307 308 308 309 309 310 311 311 311 312 311 312 313 312 311 312 313 314 315 315 315 317 317 315 315 315 314 314 316 313 310 316 319 318 318 317 315 315 319 319 319 320 322 322 322 322 324 329 328 325 326 329 328 327 326 326 325 324 323 323 322 320 319 319 319 319 318 316
Wind_Speed
13 13 13 14 14 14 14 14 14 14 15 16 16 16 17 17 17 18 18 17 17 18 18 20 19 18 19 20 21 23 26 29 26 20 14 17 16 12 14 16 14 12 11 8 6 6 1 1 3 6 7 4 1 3 4 2 2 3 3 4 5 6 6 5 7 5 1 0 2 5 3 3 7 3 1 2 3 4 5 1 2 3 6 5 6 15 24 24
13 13 13 13 14 14 13 14 14 14 15 15 16 16 16 17 17 17 18 18 18 18 17 18 20 18 17 20 21 23 28 27 21 18 17 13 10 11 15 18 19 18 15 9 7 7 5 2 4 6 4 3 1 2 5 3 3 4 2 4 7 5 3 3 4 3 2 3 6 9 3 1 5 3 2 3 3 6 7 3 3 5 7 8 11 19 24 24
14 14 14 14 14 14 14 14 14 14 15 15 15 16 16 16 17 17 17 18 17 18 17 16 19 19 17 19 20 23 27 22 14 10 5 7 7 8 12 15 18 18 18 12 6 8 8 4 9 7 2 2 1 2 5 4 4 4 3 6 7 3 2 2 4 4 4 5 8 9 2 1 4 1 2 2 5 8 8 7 8 8 10 11 13 19 22 23
15 15 14 14 14 14 14 14 14 14 14 15 15 15 16 16 16 17 16 17 17 17 16 15 19 19 17 18 19 23 22 13 6 3 5 10 11 9 9 12 14 16 17 13 7 7 6 5 9 6 2 3 1 3 6 6 4 3 5 6 3 4 4 4 5 6 5 4 5 7 6 6 3 0 2 3 6 6 9 11 7 8 15 17 18 20 21 22
17 17 16 16 15 15 15 14 14 14 14 14 14 15 15 16 16 16 16 17 17 17 17 16 17 18 17 16 19 22 14 5 1 5 8 12 14 14 10 9 13 16 16 18 12 7 4 4 7 4 2 3 3 4 5 7 4 3 6 3 3 5 5 4 4 4 3 2 4 6 7 7 2 1 2 5 8 5 5 10 4 5 15 18 20 21 20 20
18 19 18 18 17 16 16 15 14 14 14 13 14 14 15 15 15 15 16 16 17 17 17 16 16 17 16 15 19 16 6 3 1 4 6 11 16 18 15 7 13 18 18 20 14 8 5 4 7 6 3 3 6 6 3 6 4 4 5 2 3 5 4 2 2 3 2 2 4 6 5 5 5 5 2 7 10 4 2 7 6 7 13 15 17 19 19 19
18 18 18 18 19 18 17 17 16 15 14 14 13 13 14 14 15 15 16 16 16 16 16 16 15 16 15 15 14 7 2 8 7 4 6 9 14 19 18 9 11 20 21 21 14 10 7 7 8 6 6 4 6 7 3 6 5 6 5 3 5 5 5 5 4 3 1 4 7 5 5 7 8 6 1 6 10 6 3 6 9 12 15 16 16 16 17 18
18 18 18 18 19 19 19 18 17 16 15 14 13 12 13 13 14 14 15 16 16 15 16 15 13 14 13 11 8 4 4 13 15 12 12 11 12 16 14 7 9 20 21 22 18 12 9 10 9 5 6 4 5 7 5 6 6 9 7 3 3 4 5 6 4 5 3 6 7 4 7 9 6 3 3 5 7 5 3 9 11 14 16 16 17 16 16 15
18 18 18 18 18 19 20 19 18 18 16 15 14 12 12 13 13 14 14 15 15 14 15 15 13 12 11 7 4 6 7 11 14 15 13 11 10 12 10 6 8 16 15 19 20 15 9 10 9 5 5 4 6 8 6 7 6 8 8 3 3 3 4 4 4 6 4 4 3 4 9 5 0 1 4 5 5 3 7 10 12 15 17 17 17 15 14 14
19 19 19 19 18 18 19 19 19 19 17 16 15 13 12 12 12 13 14 14 14 15 15 14 13 11 10 5 2 5 6 5 7 9 8 12 14 12 7 5 5 12 9 12 16 15 10 8 8 4 3 4 6 6 6 7 3 4 6 4 6 6 4 3 4 4 2 3 5 7 9 1 3 2 3 5 4 6 9 10 12 15 16 18 16 13 12 12
19 19 19 19 19 19 19 19 19 19 19 18 16 15 14 12 12 13 14 13 14 15 15 14 13 11 9 5 4 7 5 3 4 5 11 21 23 16 11 8 3 8 8 8 12 16 12 7 8 4 1 4 6 5 4 5 2 3 5 4 5 5 4 4 5 4 2 4 7 10 8 0 3 3 2 4 7 9 10 11 13 14 15 16 15 12 10 10
21 20 20 20 20 20 19 19 19 19 20 19 17 16 14 13 13 14 14 13 15 14 14 14 12 10 10 8 12 17 13 11 14 19 24 29 27 21 17 13 7 9 10 9 11 16 13 8 11 6 1 4 7 4 3 3 2 3 4 3 3 1 5 7 5 4 5 4 5 8 5 3 6 4 1 4 9 10 11 12 12 13 14 15 13 11 9 9
21 21 21 21 21 20 20 20 19 19 19 18 18 16 15 14 13 14 14 14 15 14 14 14 12 10 10 8 13 24 26 25 28 32 33 31 27 21 15 11 7 8 11 11 12 15 12 7 8 5 1 2 4 2 1 3 2 3 3 2 2 2 5 6 3 3 6 4 5 8 5 4 7 5 2 6 10 12 12 12 12 12 13 13 11 9 8 8
21 21 21 21 21 21 21 20 20 20 19 18 18 17 15 15 15 15 15 16 15 14 12 12 11 10 9 9 15 26 28 28 33 35 33 26 19 16 14 10 7 6 9 9 10 12 11 6 4 3 1 1 1 0 1 2 1 3 3 1 2 3 4 3 2 5 7 3 5 8 6 4 4 3 5 8 10 13 13 13 12 12 12 11 10 9 7 7
21 21 21 22 21 21 21 21 20 20 19 18 18 16 16 16 16 17 18 19 17 14 12 11 11 8 8 11 17 21 16 16 24 25 19 16 14 11 8 7 8 8 8 7 9 10 10 7 4 3 1 1 1 1 2 2 1 2 4 3 2 3 2 1 3 7 7 2 5 8 5 3 3 3 6 8 10 11 11 13 13 13 14 12 10 9 7 6
21 21 21 22 22 21 21 21 21 20 19 18 17 16 17 17 17 21 24 22 19 14 10 8 7 7 6 8 9 10 7 9 14 12 7 7 10 7 4 5 5 6 8 7 7 10 10 7 3 1 1 2 3 3 3 3 2 1 3 3 3 5 3 1 4 5 4 2 6 8 3 1 2 4 6 4 9 12 10 13 13 13 14 13 11 9 7 6
21 21 21 21 22 21 20 21 20 20 19 18 18 17 17 17 19 23 23 17 13 10 8 6 5 6 8 8 9 8 5 7 7 7 7 6 7 7 7 5 4 6 6 5 7 8 7 5 3 2 2 2 4 5 5 6 6 2 3 2 2 5 4 3 3 2 2 3 6 7 4 3 2 6 8 5 8 12 11 12 13 12 12 11 10 9 8 7
21 21 21 21 21 21 20 21 20 19 18 17 17 18 18 18 18 15 9 1 5 4 6 8 5 4 6 7 8 7 4 6 8 9 10 8 7 9 9 4 4 8 8 5 4 5 3 3 3 3 4 4 6 8 7 5 5 5 6 5 2 3 3 4 3 1 2 4 6 8 6 4 3 7 11 8 9 13 13 11 11 11 11 11 11 10 9 7
21 21 21 20 21 21 21 20 20 19 17 16 15 16 16 13 8 3 3 7 7 3 3 6 8 3 3 4 7 7 8 9 10 9 6 5 7 10 8 3 5 9 9 5 5 6 4 3 4 6 7 7 8 9 6 4 7 8 6 6 5 4 4 3 2 1 1 4 6 8 7 6 7 10 12 10 9 11 12 10 9 9 10 11 10 10 7 5
22 21 20 20 20 20 20 19 20 19 16 14 12 11 8 3 2 0 3 6 6 5 4 5 12 9 7 2 1 7 9 6 5 4 3 5 8 9 6 4 5 6 7 8 7 6 6 6 7 8 7 9 8 8 6 4 7 9 6 6 4 4 5 2 2 1 1 4 5 5 6 7 10 12 13 12 9 10 12 10 10 11 11 11 11 8 5 7
23 21 20 19 19 20 20 18 18 18 16 11 7 5 3 1 3 3 1 6 11 13 12 9 14 15 12 8 2 9 8 5 5 5 5 4 8 10 6 6 8 7 6 8 7 3 6 9 8 6 8 11 10 8 7 5 5 7 6 6 4 4 4 2 1 2 2 4 1 3 4 6 11 14 14 12 10 11 13 13 13 15 14 12 11 8 6 7
22 20 19 19 18 19 19 18 17 17 14 9 5 3 4 5 6 5 3 6 11 16 18 15 15 16 18 18 9 5 5 6 9 9 6 7 8 7 7 9 9 7 6 7 7 5 7 8 7 8 8 11 9 7 9 7 5 5 4 5 5 3 2 1 1 3 2 2 0 4 5 5 7 10 12 14 12 12 16 16 14 15 16 13 9 7 6 7
21 19 19 18 17 19 18 17 16 15 12 8 7 5 4 6 6 5 4 5 10 12 16 17 16 15 17 19 13 7 5 7 8 7 5 11 7 4 7 10 9 8 9 10 9 8 7 6 9 9 9 12 9 8 10 7 4 3 3 5 5 2 1 3 2 3 3 1 1 4 4 2 3 4 7 11 12 12 11 6 3 6 12 11 8 7 6 8
22 18 17 17 17 17 17 17 16 14 13 11 11 9 6 7 5 4 3 4 8 8 11 16 15 13 14 10 8 12 10 8 7 5 6 11 6 3 7 8 10 10 10 10 10 8 4 7 11 10 11 14 11 10 12 9 6 3 3 4 4 3 1 1 1 2 0 1 2 2 2 1 3 6 7 8 10 8 3 4 3 5 5 4 5 5 7 10
22 17 15 15 15 15 16 15 13 12 11 9 8 6 4 3 3 3 2 3 6 5 6 10 9 9 10 7 9 12 9 8 9 6 4 10 9 5 4 5 6 10 11 10 8 7 4 7 13 12 11 13 12 10 12 11 7 4 5 5 5 4 1 1 2 2 2 3 1 0 5 4 2 6 9 8 10 7 6 5 9 9 7 6 7 6 8 9
20 14 13 13 12 14 13 8 6 7 6 5 3 0 3 4 5 3 3 3 5 3 3 5 5 7 9 10 11 10 5 6 12 12 8 8 9 4 4 5 3 6 11 9 4 3 4 6 11 14 12 12 12 10 11 12 8 5 6 7 6 4 2 1 1 0 3 3 1 0 6 4 2 5 8 9 13 11 10 11 13 11 10 10 8 8 9 9
17 11 11 11 10 11 8 4 6 6 4 2 2 4 9 7 5 3 3 3 4 3 5 2 2 8 9 10 14 11 3 2 5 12 12 9 7 3 5 7 4 4 6 6 4 2 7 9 10 13 14 11 11 8 8 10 8 4 6 10 8 6 5 3 1 1 1 1 1 2 2 3 3 5 4 7 13 12 11 13 14 12 13 12 11 11 11 11
13 9 9 9 8 9 7 7 8 5 4 3 3 10 12 6 3 4 3 2 2 3 4 2 3 7 6 9 17 9 0 3 4 8 13 13 7 2 5 7 7 9 8 8 7 2 6 11 10 12 12 9 8 7 9 11 7 4 7 11 9 7 7 5 3 2 2 2 5 4 3 4 4 2 2 5 12 13 12 14 14 13 15 14 13 13 13 13
10 7 7 7 8 9 8 8 8 6 7 6 5 12 10 1 3 3 2 2 2 2 3 4 5 6 5 9 15 8 2 1 1 4 10 11 7 2 3 4 6 12 9 7 6 3 3 9 11 12 10 7 7 8 12 13 5 5 9 8 6 5 4 3 3 3 0 3 8 5 6 6 4 3 3 5 9 12 12 13 13 13 15 15 14 15 14 13
10 7 6 7 8 8 6 7 8 8 8 6 7 12 5 2 2 3 3 2 0 2 3 3 3 5 8 9 9 9 5 2 2 6 7 6 5 3 1 3 5 9 6 3 5 3 1 4 7 7 6 7 8 9 12 11 8 10 10 8 6 3 2 2 1 1 2 7 6 6 8 6 5 3 4 5 7 11 13 12 12 12 13 14 13 14 13 12
10 8 7 7 7 6 5 4 4 4 3 2 8 9 0 2 2 4 4 1 2 1 2 2 4 7 10 8 5 8 7 4 2 8 7 6 7 5 4 5 5 6 6 6 7 4 4 6 4 3 4 7 9 8 7 7 11 12 8 7 7 3 2 2 1 2 6 7 2 4 7 8 7 3 4 7 6 8 14 15 15 16 16 15 13 13 13 11
12 10 9 9 7 7 7 5 5 6 4 4 8 5 2 2 3 4 1 3 2 1 3 2 5 6 8 5 3 7 5 2 5 9 8 9 8 6 5 6 7 7 8 10 8 5 5 5 2 2 5 9 10 8 4 4 9 10 8 9 9 5 5 5 5 5 6 4 2 1 5 6 7 2 1 5 2 1 6 11 15 18 18 17 14 13 12 10
13 11 11 10 8 9 10 9 8 8 5 5 5 1 2 2 2 5 3 3 1 1 4 2 0 2 6 5 3 7 4 1 6 8 7 10 9 5 4 2 4 4 5 8 8 7 5 1 3 5 5 8 12 11 7 6 8 10 10 11 10 7 6 7 7 5 3 2 1 1 3 4 4 1 0 2 0 2 3 7 13 16 16 15 12 11 12 12
14 12 11 11 10 11 12 11 9 6 3 4 2 1 3 3 2 3 2 3 3 2 4 4 5 2 7 5 2 8 5 3 6 8 8 9 9 8 6 4 3 2 6 8 6 8 8 3 6 8 4 8 11 9 8 8 8 8 6 6 7 6 5 6 7 5 3 3 2 3 3 3 2 2 1 0 3 2 1 5 11 12 12 13 10 10 12 12
15 13 11 11 10 9 8 8 7 5 3 2 1 2 3 3 2 2 1 4 4 4 6 6 4 3 6 3 3 8 5 3 6 8 8 9 9 8 8 6 4 3 9 10 3 6 8 3 4 4 2 9 11 4 7 11 9 5 2 4 6 5 3 2 1 2 2 2 2 3 2 1 1 1 2 3 5 4 4 8 12 11 12 13 12 11 11 11
18 13 8 7 7 5 2 4 6 8 6 2 2 3 3 2 3 3 3 4 3 5 9 7 1 2 4 3 4 9 6 1 7 8 5 7 7 6 6 4 3 3 7 7 2 4 7 4 3 3 2 8 11 8 9 10 8 4 3 7 4 3 3 2 1 2 1 3 3 3 2 1 1 2 3 5 6 7 6 9 13 13 14 15 12 10 8 6
17 12 6 5 5 3 1 5 9 10 5 2 2 2 1 1 3 3 3 4 3 4 7 3 1 2 2 3 3 7 7 3 6 7 5 6 6 7 8 5 3 4 4 5 2 1 5 5 3 5 8 6 5 10 11 7 5 6 7 7 4 3 1 1 2 2 3 6 3 2 3 3 4 3 5 6 8 9 9 9 13 14 14 15 13 10 9 8
12 8 4 3 3 3 2 8 10 7 3 1 3 2 0 1 4 3 2 3 2 3 5 3 2 4 2 3 1 5 7 5 6 6 6 7 3 6 10 6 4 6 4 4 3 1 4 5 3 7 11 7 2 7 10 5 1 3 6 7 4 3 4 2 2 3 4 5 2 2 3 2 5 5 6 9 11 13 12 10 13 15 15 13 13 12 12 13
7 4 2 2 5 3 5 9 7 3 2 2 2 2 0 2 5 4 2 2 3 3 4 4 4 4 3 2 1 2 4 4 6 5 5 6 3 6 11 6 5 7 5 5 5 2 2 4 4 5 6 7 6 7 10 8 1 0 5 7 3 2 4 4 2 2 4 4 2 3 3 2 4 5 8 12 14 16 16 14 13 14 14 13 13 13 12 9
4 2 1 6 6 4 9 8 5 2 2 1 1 2 2 3 5 4 3 1 3 2 2 4 4 4 3 2 1 1 1 3 5 3 3 6 3 4 8 8 8 8 5 6 5 2 1 2 3 4 2 5 7 6 8 10 7 5 8 9 5 1 1 3 2 1 1 3 2 3 3 1 2 2 6 10 12 15 17 15 11 10 13 13 13 13 12 11
3 1 2 7 2 11 11 5 2 2 1 2 1 2 3 3 4 4 1 0 2 3 2 4 5 3 3 2 2 2 1 2 4 2 2 7 5 2 6 9 11 9 6 6 6 3 2 2 3 4 4 6 5 3 6 11 12 10 8 8 7 5 3 5 5 2 1 1 2 1 2 1 2 1 4 4 8 12 14 14 12 11 14 15 13 14 13 11
2 1 3 2 10 13 5 0 1 1 1 1 2 3 4 4 4 4 3 2 3 2 2 4 4 3 2 1 2 2 1 1 3 1 2 7 7 4 6 9 12 12 7 5 5 3 2 2 3 3 4 4 3 3 7 12 12 8 8 7 7 7 7 8 6 4 3 1 1 0 1 1 2 2 3 3 7 11 12 13 14 14 14 14 14 14 12 10
1 3 4 3 13 7 2 0 1 1 2 3 5 5 4 4 3 4 4 3 2 1 2 3 3 2 1 1 3 3 2 0 2 2 2 4 4 3 7 9 11 14 9 4 5 5 3 2 3 3 3 2 1 2 2 8 9 8 9 8 7 7 6 4 2 4 5 4 3 1 2 1 2 3 1 5 9 11 11 13 15 14 12 14 16 16 14 14
2 2 2 4 10 4 3 1 1 1 2 4 6 5 5 4 4 5 4 3 2 2 2 3 2 2 2 3 4 4 3 1 1 1 1 2 1 1 7 10 10 12 9 5 5 5 3 2 4 5 6 5 5 4 4 7 9 8 8 8 7 6 5 2 2 3 5 6 7 5 4 1 2 1 5 9 11 12 11 12 14 14 13 14 16 16 15 16
2 1 1 1 6 3 2 2 4 2 3 4 5 5 5 3 4 5 5 4 3 2 3 3 3 3 4 4 4 5 4 2 1 1 1 1 1 2 5 8 9 9 7 6 8 6 2 2 4 5 7 8 8 6 5 5 4 4 6 9 10 11 10 6 3 4 6 5 7 7 3 1 0 4 9 11 12 13 12 12 12 14 15 15 15 15 15 15
2 1 1 1 3 2 3 3 5 4 4 4 4 4 3 1 2 4 5 4 5 4 4 4 3 3 4 3 2 2 2 1 1 1 2 1 1 2 3 6 7 8 8 10 12 7 1 2 3 4 5 6 5 2 2 6 7 6 8 11 11 11 11 7 4 5 5 5 5 5 3 5 6 8 11 13 14 14 13 14 14 14 15 16 16 15 15 15
2 1 1 1 1 2 3 4 4 4 4 4 3 3 3 4 5 2 1 2 3 4 4 4 4 4 3 2 1 1 1 1 1 0 2 1 0 2 2 3 6 7 8 11 11 6 1 3 4 4 3 2 2 1 2 6 11 12 11 11 10 9 10 10 7 4 5 5 5 3 5 7 9 12 14 15 15 14 14 14 15 14 14 15 15 15 16 16
1 1 0 2 2 2 2 3 4 5 6 5 3 3 5 6 6 3 1 2 3 4 3 2 3 5 5 3 2 2 1 1 2 2 3 3 1 2 3 3 2 4 6 9 8 4 3 4 4 4 3 2 1 2 2 3 5 8 11 13 13 11 12 13 8 5 7 6 3 6 9 8 8 14 16 14 14 15 14 14 14 14 14 14 13 14 16 17
2 1 1 2 2 3 5 5 4 5 6 4 2 3 4 5 5 3 2 2 3 3 4 2 3 3 4 2 3 1 2 2 3 3 3 3 2 1 3 4 2 1 5 7 5 1 2 4 4 4 4 3 1 2 4 5 4 5 7 10 13 14 14 13 8 5 6 2 1 6 11 4 3 11 14 12 13 14 13 12 13 14 15 15 14 15 16 17
1 1 2 2 3 4 5 5 4 5 5 4 3 3 3 4 6 5 3 3 4 2 2 2 7 6 4 2 1 0 1 3 3 2 3 3 3 3 1 2 2 2 6 6 4 2 3 3 4 4 4 2 2 2 3 7 7 6 4 4 8 11 12 11 7 5 4 2 2 7 8 1 2 10 13 12 13 15 15 15 14 13 13 15 16 16 17 17
2 4 3 2 3 3 3 3 3 4 3 3 3 3 2 3 4 6 6 4 5 5 3 4 8 6 3 4 3 2 3 3 3 3 3 2 1 2 1 0 1 3 6 5 3 3 3 2 3 4 5 2 2 3 4 5 5 5 4 4 7 9 8 5 3 4 6 7 8 7 5 4 7 12 14 13 15 17 17 18 16 13 14 15 16 17 17 16
5 4 4 2 3 2 2 3 3 3 2 2 4 4 3 4 4 6 6 3 2 4 3 4 8 7 5 6 6 6 6 6 7 6 4 3 3 3 3 2 2 1 4 4 2 2 3 3 3 3 5 2 1 1 5 6 6 4 2 4 5 4 2 2 2 2 4 8 9 4 2 8 13 15 16 16 17 18 18 17 15 16 16 15 16 18 17 14
Wind_Direction
303 304 307 310 311 312 314 316 318 320 322 323 325 326 326 328 327 324 326 328 328 329 327 325 328 326 324 325 327 326 322 319 317 313 288 267 270 267 267 270 277 273 252 272 278 240 245 111 141 139 151 147 170 172 161 150 139 174 181 193 211 208 203 174 175 181 178 102 246 301 337 304 315 329 178 122 95 118 153 138 94 72 49 94 120 131 142 149
298 298 299 303 303 305 308 309 312 315 317 319 322 324 325 326 327 325 326 330 328 326 328 324 323 327 327 327 327 324 322 319 310 291 277 285 295 270 260 259 259 261 253 260 269 220 182 164 159 148 149 161 190 165 171 172 176 190 152 205 221 199 183 174 183 180 235 296 309 304 312 248 297 343 281 233 133 146 162 166 143 102 91 112 120 131 143 150
290 291 291 295 297 299 302 303 306 309 312 316 318 320 322 323 325 325 324 327 327 323 326 324 321 325 328 329 326 322 322 318 301 272 282 5 352 291 269 255 248 248 242 240 244 209 201 192 164 156 143 166 176 173 182 177 184 195 171 220 221 159 159 207 206 203 230 271 302 302 307 299 288 294 276 230 166 176 186 184 169 157 144 139 138 141 149 156
286 284 284 287 289 292 296 298 299 303 307 311 314 317 318 321 322 323 324 325 324 322 325 324 320 321 327 330 324 324 324 308 280 172 78 28 2 344 306 266 240 234 229 212 185 186 195 174 162 153 150 172 162 173 183 180 177 176 195 224 185 137 197 201 202 222 235 238 277 296 302 308 316 256 252 175 179 203 208 201 191 175 162 155 156 155 157 161
295 287 284 283 282 283 287 290 292 295 300 305 310 313 315 318 318 320 325 324 324 322 324 324 318 320 327 327 324 328 326 288 165 108 58 19 360 356 332 279 233 224 210 188 177 171 169 151 154 139 154 173 158 171 189 185 167 168 207 236 105 146 205 201 202 225 228 216 265 287 299 311 324 262 242 210 218 229 216 209 210 178 168 161 160 161 163 166
305 296 290 286 283 281 281 282 285 287 291 297 303 309 312 315 315 318 322 322 322 319 322 323 317 319 324 328 326 326 305 270 82 93 28 10 359 359 356 321 222 210 190 178 172 165 171 164 164 160 167 172 177 185 183 176 178 209 217 218 174 186 206 222 242 218 190 239 272 276 307 322 301 299 263 224 236 266 300 212 175 159 173 168 160 162 167 169
313 307 302 294 288 283 281 280 281 282 285 291 296 303 308 312 314 315 318 320 319 317 319 320 317 316 322 335 331 326 261 277 269 253 316 340 356 4 2 348 205 190 176 168 161 163 169 179 181 161 163 169 189 196 171 164 187 228 224 192 200 205 215 238 253 236 198 249 264 284 310 294 283 301 242 221 245 274 286 192 151 149 168 171 166 167 170 170
318 314 312 306 297 290 285 281 280 279 281 286 290 296 302 308 310 312 316 317 317 316 314 314 317 317 325 342 337 323 260 260 260 262 289 306 345 7 8 7 179 176 173 171 165 164 161 176 179 152 177 182 180 188 170 160 181 224 223 167 171 183 213 229 243 248 243 248 263 280 279 276 276 278 212 235 263 265 178 152 143 151 163 171 174 173 171 168
321 319 317 314 309 302 295 287 282 278 279 282 286 291 296 301 305 309 313 314 315 315 314 313 314 317 323 335 328 305 262 252 260 262 284 307 335 356 16 39 168 173 180 180 168 162 164 180 180 173 194 175 173 179 178 186 190 219 212 172 200 213 222 213 230 242 233 242 238 241 260 262 92 258 226 246 268 202 155 150 150 157 164 171 176 175 172 167
322 321 318 318 315 310 304 295 287 283 280 278 281 286 290 294 298 305 309 310 313 313 313 310 311 317 317 315 282 276 265 264 259 246 287 323 327 331 354 25 174 186 195 184 168 164 172 183 175 181 194 157 177 170 173 196 178 193 196 207 234 244 249 211 233 236 230 256 202 223 262 229 118 288 242 222 214 171 158 156 157 162 167 171 174 174 172 166
324 321 319 320 318 314 309 300 293 289 284 279 277 280 285 289 292 300 303 304 309 311 309 305 305 307 299 290 238 247 255 253 256 274 308 313 315 312 310 325 244 213 216 193 179 175 177 176 161 161 219 163 170 159 176 195 141 149 173 195 226 250 256 223 245 241 220 254 203 216 260 221 165 254 249 186 176 171 162 157 161 167 168 170 172 169 169 170
327 325 321 320 318 316 313 307 300 293 288 283 276 275 279 283 288 296 299 299 304 305 305 301 299 298 288 270 241 241 251 267 282 297 301 302 304 299 297 301 276 234 212 197 194 183 172 161 163 168 204 164 157 154 187 174 142 149 157 205 204 218 233 213 234 228 199 224 186 195 237 225 209 229 241 176 172 171 164 160 162 169 170 169 170 167 168 169
329 327 323 321 319 316 315 313 308 300 294 286 277 276 278 279 283 291 294 293 296 299 302 298 292 293 282 265 248 251 263 280 290 294 292 295 298 292 291 293 274 230 206 206 200 184 170 150 158 161 126 169 153 138 156 128 151 162 148 234 210 197 219 198 200 182 190 210 164 182 228 219 215 236 216 183 178 171 164 165 165 168 171 170 169 166 162 157
327 326 323 320 319 318 316 314 312 307 299 290 281 276 276 279 283 287 289 285 288 294 297 294 289 287 270 262 272 270 273 282 285 284 285 288 291 289 285 278 260 213 198 204 187 177 179 160 121 127 150 221 143 42 107 100 152 160 147 200 213 220 212 178 160 173 193 209 165 196 236 223 223 246 199 187 184 175 167 168 169 170 172 172 173 168 154 146
323 323 322 319 317 317 316 315 315 310 304 298 287 278 276 279 283 285 285 283 282 284 288 290 278 273 276 275 280 281 280 277 273 275 282 279 267 273 277 242 228 213 197 192 171 163 168 155 125 148 184 148 148 220 140 114 107 138 180 185 173 211 224 224 185 186 200 191 176 207 225 228 266 236 187 187 188 181 174 172 173 175 176 175 175 171 153 139
319 319 318 318 315 313 314 314 315 313 309 302 292 283 277 278 283 286 288 285 275 269 272 280 255 236 267 283 287 290 270 247 262 278 286 260 241 226 162 149 170 191 196 195 168 149 146 141 137 179 171 157 181 172 132 156 161 132 213 181 147 188 210 237 180 194 226 150 184 215 216 193 257 196 168 170 186 187 184 180 179 180 180 179 178 175 161 142
314 315 315 315 314 311 311 310 311 313 311 304 299 288 277 283 291 292 295 287 263 244 230 244 245 227 246 276 297 292 259 242 259 287 281 261 243 208 175 149 132 148 155 155 144 134 134 146 154 177 188 177 172 168 174 194 185 161 193 157 135 187 195 204 171 151 226 189 194 209 213 204 170 161 165 164 183 189 191 188 186 184 183 184 183 183 176 159
310 311 311 312 312 310 308 308 309 311 310 306 299 289 286 293 295 297 307 242 174 184 216 240 248 241 236 249 274 274 283 297 292 289 279 267 240 205 193 174 142 144 131 121 144 143 149 170 164 172 186 184 181 186 191 187 166 152 165 163 156 184 203 215 199 96 181 205 198 188 199 211 154 161 185 188 181 190 194 189 188 187 188 190 190 195 192 174
306 307 308 309 310 309 307 306 308 309 312 307 296 294 298 297 286 304 95 135 141 149 216 213 198 218 302 219 231 270 298 305 293 279 262 225 196 194 203 185 139 154 153 148 169 170 157 145 166 192 195 182 181 187 173 123 139 148 160 170 159 164 192 226 251 319 204 203 200 193 195 187 164 175 199 199 185 196 197 186 188 188 192 197 198 199 183 144
304 304 306 306 307 308 305 306 306 308 312 306 301 305 307 298 257 83 129 177 203 230 256 195 196 234 305 276 226 326 320 311 295 260 202 172 163 165 188 176 139 166 181 161 159 169 166 174 194 197 180 159 161 166 144 111 146 147 149 170 163 172 182 193 243 284 282 215 207 195 191 172 166 182 201 198 187 202 201 189 194 196 198 205 206 193 135 106
300 301 303 303 306 307 305 307 306 308 311 297 289 301 287 260 286 303 223 232 235 236 248 230 207 227 257 258 357 20 358 325 310 277 247 203 162 160 175 171 164 181 178 146 133 134 187 199 195 168 148 149 154 147 127 109 140 147 154 168 172 194 180 147 244 302 310 228 189 129 181 175 172 183 195 194 191 204 201 195 199 201 204 210 206 186 126 119
297 297 300 300 304 305 306 306 303 309 309 280 248 251 249 257 275 282 271 267 252 234 238 239 225 233 247 252 266 0 350 296 293 289 240 193 186 183 172 168 177 174 150 143 134 150 202 206 159 139 142 143 143 144 140 133 135 143 151 161 167 187 204 176 233 333 340 240 167 139 184 186 171 182 192 193 197 206 204 201 203 202 206 209 201 179 143 131
298 292 295 297 301 304 306 304 303 305 296 261 230 220 242 270 287 287 256 275 279 242 225 228 226 229 239 248 248 229 238 239 254 280 199 175 190 196 178 174 173 158 158 175 172 171 198 184 146 142 142 139 144 159 158 156 158 147 146 163 162 154 212 192 177 2 11 335 19 139 177 190 149 170 201 204 206 210 206 201 236 226 216 209 196 188 158 123
304 292 289 295 300 303 306 305 303 296 277 255 242 241 261 280 300 308 268 271 284 254 221 216 215 223 229 233 204 192 211 215 218 256 197 178 173 164 187 172 156 164 178 177 172 175 168 141 144 144 147 148 152 165 166 176 188 176 174 175 153 141 186 166 36 328 324 61 47 124 181 227 168 179 200 212 214 211 149 65 320 256 219 168 154 159 134 123
307 290 282 292 300 304 308 306 300 286 265 248 243 246 256 278 331 319 268 277 272 258 224 205 204 223 213 181 164 174 200 221 220 235 206 187 179 153 173 172 167 180 173 150 155 182 166 140 151 152 157 156 153 167 175 177 179 186 209 202 182 176 171 72 14 325 195 174 94 167 222 212 157 193 199 195 205 194 131 169 225 223 197 164 149 134 128 136
306 285 276 289 299 309 311 304 301 287 253 216 185 305 304 309 335 291 219 282 272 231 162 168 184 191 173 164 166 156 167 222 219 216 218 205 193 176 167 168 185 174 153 142 157 193 158 158 166 160 157 157 158 174 180 174 174 186 190 184 190 189 156 171 295 269 205 202 112 259 239 219 143 213 209 192 199 184 156 191 211 210 205 193 176 158 152 161
307 279 272 289 298 310 310 285 306 303 259 203 130 341 325 322 321 262 207 274 270 174 137 146 199 176 165 166 164 156 161 175 181 197 211 214 199 212 196 172 158 150 139 145 184 193 145 159 179 167 158 166 171 174 180 177 174 174 161 160 173 180 171 174 170 202 257 307 231 156 231 246 213 212 200 187 199 183 167 195 204 202 206 198 188 178 170 179
306 272 273 292 300 304 294 279 293 281 257 280 321 326 328 327 276 231 203 253 238 126 124 138 161 160 148 160 170 178 184 119 136 179 192 202 196 183 204 192 161 147 152 174 182 152 140 163 177 167 165 182 174 148 159 171 166 157 160 162 168 172 175 172 182 229 354 326 244 177 147 232 225 175 134 175 198 194 183 198 206 205 205 199 190 185 181 188
307 280 284 294 299 300 291 278 272 262 263 262 300 327 333 319 213 202 207 250 193 120 112 125 141 145 124 155 185 220 317 119 214 151 165 189 205 223 203 193 153 145 159 192 172 119 157 174 169 166 174 181 152 134 158 172 166 139 148 146 145 153 151 156 208 233 14 262 247 188 164 226 228 173 171 172 197 204 194 200 210 205 204 201 192 189 187 186
312 289 294 292 299 307 304 282 263 272 273 255 316 335 346 148 189 192 207 242 219 90 115 132 140 144 144 155 192 230 258 309 47 120 145 163 184 229 177 109 140 145 147 178 166 142 125 156 161 173 177 157 146 151 167 171 140 128 137 129 121 128 106 102 201 170 214 246 241 170 173 219 242 198 178 183 196 196 190 200 211 202 201 206 198 192 187 181
326 298 296 290 296 308 307 285 260 288 272 253 330 335 104 162 232 190 180 238 334 31 100 128 130 139 153 161 188 213 230 286 126 146 156 152 166 195 167 139 151 149 147 172 179 153 125 148 164 178 157 137 141 156 172 161 141 139 143 139 136 131 124 148 138 162 224 235 198 147 176 201 229 224 183 208 208 193 192 195 198 193 196 203 200 193 186 177
338 311 297 288 288 284 273 262 265 290 276 270 321 327 176 216 231 199 238 321 311 8 25 87 139 150 166 172 181 186 197 242 176 168 162 160 169 187 189 174 162 164 175 176 169 143 141 163 159 147 164 155 148 153 165 161 160 163 156 154 161 160 162 186 190 192 222 225 84 129 177 197 232 232 190 227 227 263 224 201 192 192 195 198 195 188 180 170
339 323 306 297 290 275 270 273 273 279 275 269 300 301 205 255 225 213 263 331 32 1 350 4 53 190 179 185 181 171 180 202 173 177 167 158 162 183 235 220 154 159 162 154 154 152 151 173 170 161 169 173 166 165 171 172 179 179 168 171 178 166 173 193 196 205 228 193 105 103 160 205 239 160 154 257 120 3 271 197 184 188 191 193 187 178 173 169
340 328 314 304 292 277 272 274 271 269 269 267 275 182 221 261 275 227 237 359 6 336 321 327 325 263 181 193 178 158 178 234 182 174 164 158 166 182 205 207 175 100 114 142 163 168 165 165 175 170 157 174 179 175 161 154 174 183 168 177 185 175 187 196 195 206 198 155 122 116 169 207 187 128 61 190 128 119 178 156 159 169 175 176 172 171 174 167
339 329 315 306 299 291 272 258 254 238 229 251 192 176 224 252 303 296 2 353 352 343 319 308 294 198 173 198 189 167 187 229 181 175 168 168 173 177 180 183 191 152 143 157 171 169 165 136 161 176 145 168 175 160 140 151 174 191 141 174 191 182 167 152 206 199 139 139 155 164 208 252 145 104 90 142 144 129 135 146 148 149 154 163 170 173 173 164
334 335 332 317 314 321 279 219 200 191 197 222 177 191 233 278 311 332 1 343 338 331 319 309 237 144 154 173 180 184 205 196 167 175 165 160 165 171 173 167 182 184 157 153 135 161 162 131 152 186 176 179 172 157 166 175 170 158 183 192 179 113 116 125 107 58 79 215 195 174 189 104 188 196 135 153 153 137 147 160 160 157 156 163 168 162 150 131
332 340 339 317 326 346 230 179 174 180 195 224 204 205 244 312 308 334 351 334 322 300 312 332 58 36 135 166 167 183 193 164 164 176 161 158 165 169 173 170 170 174 153 141 123 191 166 136 141 183 185 198 178 163 182 196 154 155 192 181 116 61 44 178 174 135 185 213 205 170 178 165 189 182 141 159 163 156 165 168 167 167 165 166 162 151 139 125
325 327 315 300 337 351 196 176 172 181 195 202 233 259 42 283 303 347 357 311 314 284 305 356 18 8 65 138 149 173 179 164 164 168 159 167 175 167 169 172 174 170 162 150 136 198 184 140 136 200 189 175 150 174 186 205 222 190 181 155 138 199 202 178 181 176 189 211 215 170 160 190 206 176 158 180 180 173 173 172 171 171 170 167 158 154 156 154
315 315 303 291 311 294 180 165 167 187 211 189 223 262 309 277 299 345 37 295 310 295 313 2 6 357 26 53 46 153 173 164 160 155 159 175 191 177 172 165 168 175 173 164 152 151 186 148 155 208 194 155 156 193 192 184 197 92 163 166 184 233 192 176 177 185 190 200 213 191 166 203 210 183 182 192 188 179 177 179 178 172 169 167 157 154 155 144
322 317 339 328 315 202 160 156 167 184 207 216 228 260 288 299 303 338 50 33 316 284 306 345 341 342 3 14 23 91 141 149 157 148 160 176 173 188 187 171 160 168 164 161 168 159 145 175 167 157 164 170 178 203 191 173 169 175 181 184 183 152 166 182 160 79 212 184 178 225 231 191 160 189 208 201 185 180 180 178 172 162 161 162 157 146 132 113
312 313 7 349 56 149 147 146 179 181 204 252 286 274 288 312 311 315 1 356 281 254 281 303 294 307 328 343 16 6 34 131 169 163 146 176 186 218 205 180 158 157 152 149 168 178 151 183 179 154 176 189 171 155 171 175 180 186 187 183 181 169 153 185 193 164 63 146 145 222 263 128 93 358 277 231 183 178 177 168 155 153 158 155 147 134 122 117
297 356 4 19 143 146 142 99 177 248 230 280 317 292 290 306 304 302 310 294 265 247 270 276 272 283 282 284 351 330 332 127 173 171 135 180 200 199 181 173 158 155 155 145 162 179 144 147 167 160 176 183 145 125 185 187 180 184 194 186 181 185 182 197 203 156 124 114 101 100 306 52 70 347 289 228 179 173 169 158 147 148 150 140 130 126 122 122
334 348 350 166 160 157 328 347 85 309 245 292 310 290 282 290 288 298 307 297 295 332 311 286 296 313 297 316 334 325 329 31 183 200 160 175 202 186 160 163 159 158 162 158 162 170 155 152 172 148 125 173 156 71 187 186 173 186 202 188 182 192 192 196 165 137 175 187 157 209 255 131 41 341 236 172 163 162 160 151 143 139 135 129 129 130 128 124
327 293 337 182 181 201 327 351 348 319 260 291 293 279 273 262 262 274 279 281 293 330 306 280 295 329 340 330 312 304 306 304 178 246 230 146 91 103 148 160 166 165 171 180 167 168 170 177 186 164 145 168 176 156 183 197 192 197 191 178 183 171 140 120 112 155 205 192 173 207 230 131 28 20 153 151 149 148 147 145 141 135 130 131 131 130 129 128
319 211 14 178 186 209 309 326 322 319 313 304 287 278 268 235 238 248 254 264 250 242 264 262 274 299 297 297 288 283 283 248 182 316 306 148 47 61 140 162 170 170 178 176 159 159 174 173 183 179 167 175 182 181 183 178 180 201 175 171 184 178 167 167 155 188 210 176 174 207 212 119 108 163 155 151 147 142 137 136 138 135 134 134 131 130 132 132
341 95 53 87 154 210 259 290 305 308 317 307 286 280 266 260 285 261 256 259 240 235 256 261 279 286 264 262 273 268 273 250 221 297 11 90 69 43 127 163 170 172 174 163 152 145 136 177 181 190 186 185 186 171 130 143 163 192 188 179 186 188 182 178 181 201 187 146 180 211 143 141 183 179 167 160 153 146 140 138 139 138 136 134 133 135 136 134
343 25 24 41 178 232 242 263 272 273 295 305 311 316 310 319 319 292 245 254 250 258 259 248 247 251 253 277 317 294 294 326 237 252 17 22 53 46 84 142 171 182 171 160 157 143 131 194 189 188 198 194 162 110 111 175 186 187 182 180 185 186 186 196 206 176 137 152 198 186 142 166 186 183 179 170 159 150 144 143 142 139 136 135 135 136 135 135
358 19 317 321 299 255 262 271 245 244 267 281 301 308 303 311 312 305 266 264 270 257 249 247 228 243 271 274 266 297 301 49 48 36 18 10 28 84 89 96 145 197 170 162 166 150 157 196 192 180 177 136 138 186 188 197 195 183 178 179 180 184 194 203 202 160 166 198 204 162 173 189 189 184 182 172 159 151 144 140 137 133 135 135 133 134 136 138
357 318 262 302 294 275 293 293 263 259 267 264 265 266 285 307 304 290 250 265 301 244 211 274 325 321 320 262 198 287 314 63 55 34 18 8 9 71 113 105 85 187 165 160 172 179 192 195 176 169 163 116 44 253 192 182 175 174 187 186 180 185 197 202 193 163 180 218 29 162 176 187 196 182 173 157 149 145 138 135 135 135 139 141 139 139 142 144
358 290 294 321 288 269 283 281 261 269 273 269 271 258 266 289 291 300 282 256 303 305 189 312 333 338 344 332 161 100 4 38 40 17 12 13 17 28 64 100 86 139 154 161 178 194 216 200 154 161 177 146 27 16 167 184 178 165 185 203 185 187 196 198 182 153 150 90 77 153 156 152 199 160 149 141 141 142 144 146 145 142 144 145 145 145 147 147
297 238 224 293 302 283 275 259 234 247 259 257 259 251 246 258 290 329 323 257 263 283 278 335 341 338 338 343 4 40 27 7 329 293 304 317 332 356 1 20 36 141 149 159 177 173 195 192 117 159 191 182 32 59 123 143 143 147 174 189 184 187 190 184 163 168 169 142 132 141 152 185 172 146 139 143 145 148 153 154 152 152 151 149 147 150 151 146
327 246 206 239 292 288 284 288 258 238 240 229 230 240 255 269 304 332 326 297 267 262 260 348 360 353 337 339 358 6 346 321 297 280 266 251 266 278 261 259 284 230 155 152 149 154 173 158 129 174 188 169 13 69 115 127 140 156 189 186 189 194 168 131 124 182 181 149 143 157 172 157 152 144 146 152 155 158 161 160 158 157 156 153 150 151 149 139